TRANSIT 11 DEB, 11991

Orbit data source: Space-Track

TRANSIT 11 DEB, 11991 is space debris in LEO originally from a launch on Fri, 28 Jan 1966 UTC launched from the Air Force Western Test Range (AFWTR). Debris objects in space refer to the collection of defunct objects orbiting the Earth. Examples of debris include non-operational satellites, rocket bodies, and fragments generated from explosions, collisions, or faulty payload assembly.

Loading next visibility...
Identifier
11991, 1966-005H
Orbit
LEO
Country
Flag of USUS
Related business
Manufacturer
Unknown
Mission
Spacecraft
Bus & Motor
Unknown
Mass
Unknown
Launch date (UTC)
1966-01-28 (61 years ago)
Launch vehicle
Unknown
Launch site
Air Force Western Test Range (AFWTR)
Object type
Payload
Rocket body
Debris
Shape & HBR
Unknown shape, 0.2 m
Radar Cross Section
Medium (>0.1 m² and <1 m²)

Expand to show TLE details & history
Last TLE update: 14 hours ago

TLE from 14 hours ago
0 TRANSIT 11 DEB
1 11991U 66005H   26251.19650786  .00000421  00000-0  32121-3 0  9995
2 11991  90.1632 343.8958 0176645  86.9601 301.5761 13.84971807 32896
Epoch: 2026-09-08T04:42Z
TLE epoch observation values (Epoch: 2026-09-08T04:42:58.279Z)
Latitude
26.82718°
Longitude
-74.19552°
Altitude
883.593 km
Speed
7.446 km/s
True Right ascension
22h 55m 15s
True Declination
26° 41' 29"
Sunlit
Object was in full shadow at epoch
Visualization orbit readout
Latitude
Unknown
Longitude
Unknown
Altitude
Unknown
Speed
Unknown
Apparent Right ascension
Unknown
Apparent Declination
Unknown
Sunlit
N/A
Visualization observer readout
Local Sidereal Time
10:58:23
Azimuth
Unknown
Elevation
Unknown
Doppler factor
Unknown
Orbital elements
Apogee altitude
1,072.632 km
Perigee altitude
813.973 km
Semi-major axis
7,321.44 km
Eccentricity
0.01766
Inclination
90.1632°
RAAN
343.8958°
Arg. of periapsis
86.9601°
True anomaly
299.8317°
Mean anomaly
301.5761°
Eccentric anomaly
300.7059°
Mean motion
3.46456 °/min
Orbital period
103.91 mins
BSTAR
0.00032121
Loading maneuver chart data...
Computing Atmospheric mass density...
Loading historical data...
Loading historical data...
Loading historical data...
Loading historical data...
Loading historical data...
Loading historical data...
Loading historical data...

Documentation

Showing up to 5 results
|